User: anonymous   Login
Location: Newark
(46.9000°N, 28.3500°E)
Time: 08:36:54
(UTC+00:00)
Language:

Courier 1B - Orbit

View from above orbital plane
View from above orbital plane
View from above satellite
View from above satellite

Ground track
Ground track

The orbit data is extracted from the following two-line orbital elements,

1    58U 60013A   19230.93043164 +.00000086 +00000-0 +43833-5 0  9998
2    58 028.3255 194.4768 0165034 076.3970 285.4898 13.46318818897685
Epoch (UTC): 18 August 2019 22:19:49
Eccentricity: 0.0165034
inclination: 28.3255°
perigee height: 962 km
apogee height: 1209 km
right ascension of ascending node: 194.4768°
argument of perigee: 76.3970°
revolutions per day: 13.46318818
mean anomaly at epoch: 285.4898°
orbit number at epoch: 89768

The dashed part of the orbit path shows where the satellite is in the earth's shadow,  

DLR